This demonstration page uses our WeatherBlox Daily Observations layout. Learn more.

Left ArrowRight Arrow

34.74481, -87.66753

Hourly Observations for June 27, 2022

Temp ( °F °C ) Dew Point ( °F °C ) Humidity (%) Winds ( mph kmh ) Pressure ( in mb ) Visibility ( mi km ) Precip ( " mm )
12:53 am 00:53 Clear 76 24.4 70 21.1 82 82 Calm 30.08 1019 10 16 0.00 0.00
1:53 am 01:53 Clear 75 23.9 70 21.1 84 84 N 3 6 30.07 1018 10 16 0.00 0.00
2:53 am 02:53 Partly Cloudy 75 23.9 71 21.7 88 88 NNW 5 7 30.07 1018 10 16 0.00 0.00
3:42 am 03:42 Mostly Cloudy 75 23.9 71 21.7 88 88 VRB 6 9 30.07 1018 10 16 0.00 0.00
3:53 am 03:53 Cloudy 75 23.9 71 21.7 88 88 N 6 9 30.07 1018 10 16 0.00 0.00
4:53 am 04:53 Cloudy 76 24.4 71 21.7 85 85 NNE 9 15 30.07 1018 10 16 0.00 0.00
5:32 am 05:32 Mostly Cloudy 76 24.4 70 21.1 82 82 N 7 11 30.08 1019 10 16 0.00 0.00
5:53 am 05:53 Cloudy 76 24.4 71 21.7 85 85 N 5 7 30.09 1019 10 16 0.00 0.00
6:53 am 06:53 Cloudy 76 24.4 71 21.7 85 85 N 5 7 30.11 1020 10 16 0.00 0.00
7:06 am 07:06 Cloudy 76 24.4 70 21.1 82 82 N 6 9 30.12 1020 10 16 0.00 0.00
7:53 am 07:53 Cloudy 76 24.4 69 20.6 79 79 NNE 10 17 30.13 1020 10 16 0.00 0.00
8:53 am 08:53 Cloudy 78 25.6 68 20 71 71 N 5 7 30.14 1021 10 16 0.00 0.00
9:53 am 09:53 Partly Cloudy 81 27.2 67 19.4 62 62 NE 8 13 30.13 1020 10 16 0.00 0.00
10:53 am 10:53 Mostly Cloudy 82 27.8 66 18.9 58 58 NE 7 11 30.14 1021 10 16 0.00 0.00
11:53 am 11:53 Mostly Cloudy 85 29.4 66 18.9 53 53 N 8 13 30.13 1020 10 16 0.00 0.00
12:53 pm 12:53 Partly Cloudy 86 30 65 18.3 49 49 NNE 9 15 30.12 1020 10 16 0.00 0.00
1:53 pm 13:53 Mostly Cloudy 87 30.6 66 18.9 50 50 NNE 8 13 30.10 1019 10 16 0.00 0.00
2:53 pm 14:53 Partly Cloudy 90 32.2 66 18.9 45 45 N 12 19 30.07 1018 10 16 0.00 0.00
3:53 pm 15:53 Partly Cloudy 90 32.2 64 17.8 42 42 N 9 15 30.06 1018 10 16 0.00 0.00
4:53 pm 16:53 Sunny 89 31.7 53 11.7 29 29 NNE 12 19 30.06 1018 10 16 0.00 0.00
5:53 pm 17:53 Sunny 87 30.6 55 12.8 34 34 N 8 13 30.06 1018 10 16 0.00 0.00
6:53 pm 18:53 Sunny 85 29.4 54 12.2 35 35 VRB 7 11 30.07 1018 10 16 0.00 0.00
7:53 pm 19:53 Sunny 82 27.8 55 12.8 40 40 N 5 7 30.07 1018 10 16 0.00 0.00
8:53 pm 20:53 Clear 78 25.6 55 12.8 45 45 NNE 3 6 30.09 1019 10 16 0.00 0.00
9:53 pm 21:53 Clear 79 26.1 56 13.3 45 45 VRB 5 7 30.10 1019 10 16 0.00 0.00
10:53 pm 22:53 Clear 77 25 57 13.9 50 50 NNE 10 17 30.11 1020 10 16 0.00 0.00
11:53 pm 23:53 Clear 76 24.4 57 13.9 52 52 NNE 9 15 30.11 1020 10 16 0.00 0.00

Powered by AerisWeather